Location: Unspecified
(41.1637°N, 24.2901°E)
Time: 11:38:38
(UTC+02:00)

ISS - Pass Details

Date: 07 May 2026
Orbit: 414 x 424 km, 51.6° (Epoch: 12 May)

Event Time Altitude Azimuth Distance (km) Brightness Sun altitude
Exits shadow 03:19:38 - 309° (NW) 2,408 0.0 -18.6°
Rises 03:19:45 0° 309° (NW) 2,362 0.0 -18.6°
Reaches altitude 10° 03:21:55 10° 316° (NW) 1,498 -1.0 -18.3°
Maximum altitude 03:25:09 42° 29° (NNE) 609 -2.5 -17.9°
Drops below altitude 10° 03:28:22 10° 103° (ESE) 1,497 -0.5 -17.4°
Sets 03:30:32 0° 110° (ESE) 2,361 0.4 -17.1°
